COSMO-SKYMED 1

Last updated on Wed Sep 17 2025 00:02:15 GMT+0000 (Coordinated Universal Time)

1 31598U 07023A 25259.59513853 .00004055 00000+0 37742-3 0 9999 2 31598 97.8894 84.4636 0001461 92.9579 267.1809 14.94867596988879
UTC large
Height (km)
Speed (km/s)
/
Latitude / Longitude
Inclination (degrees)
Orbital Period (minutes)
Azimuth
Elevation
Range (km)
Doppler Factor

Next 0 passes for location: London (51.5072 / 0.1276)

Sorry there are no passes over London.